Regional Weather Roundup
Issued by NWS

Home | Current Version | Previous Version | Graphics & Text | Print | Product List | Glossary On
Versions: 1 2 3 4 5 6 7 8 9 10 11 12 13 14 15 16 17 18 19 20 21 22 23 24 25 26 27 28 29 30 31 32 33 34 35 36 37 38 39 40 41 42 43 44 45 46 47 48 49 50
000
ASUS43 KBIS 050910
RWRND

NORTH DAKOTA REGIONAL WEATHER ROUNDUP
NATIONAL WEATHER SERVICE BISMARCK ND
400 AM CDT SUN JUL 05 2015

NOTE: "FAIR" INDICATES FEW OR NO CLOUDS BELOW 12,000 FEET WITH NO
SIGNIFICANT WEATHER AND/OR OBSTRUCTIONS TO VISIBILITY.


NDZ001>003-009>011-017-051000-
NORTHWEST NORTH DAKOTA

CITY           SKY/WX    TMP DP  RH WIND       PRES   REMARKS
WILLISTON      CLOUDY    66  62  87 N13       29.83R
MINOT          MOCLDY    63  61  93 NW7       29.75F
MINOT AFB      PTCLDY    62  62 100 N8        29.75F
$$

NDZ018>021-031>035-040>046-051000-
SOUTHWEST NORTH DAKOTA

CITY           SKY/WX    TMP DP  RH WIND       PRES   REMARKS
BISMARCK       CLEAR     69  68  96 E5        29.72S
DICKINSON      CLEAR     63  60  90 NE8       29.73F
GARRISON         N/A     66  62  87 NE9       29.73F
HETTINGER ARPT CLEAR     57  56  96 CALM      29.75S FOG
$$

NDZ004>008-012>016-024-026-027-054-051000-
NORTHEAST NORTH DAKOTA

CITY           SKY/WX    TMP DP  RH WIND       PRES   REMARKS
GRAND FORKS    LGT RAIN  68  66  93 SE10      29.75F
GRND FRKS AFB  CLOUDY    67  65  93 S10       29.76S
DEVILS LAKE    PTCLDY    64  61  88 N8        29.74R
$$

NDZ022-023-025-028>030-036>039-047>053-051000-
SOUTHEAST NORTH DAKOTA

CITY           SKY/WX    TMP DP  RH WIND       PRES   REMARKS
FARGO          CLOUDY    72  65  78 SE10      29.74F
JAMESTOWN      CLEAR     69  65  86 CALM      29.73F
$$



USA.gov is the U.S. government's official web portal to all federal, state and local government web resources and services.